timestamp,surface_pressure_avg,surface_temp_avg,battery_voltage,lat,long
2021-11-19 00:09:00+00:00,326.4764,9.1,12.65,47.84626,-54.09684
2021-11-19 00:19:00+00:00,320.9047,9.1,12.65,47.84626,-54.09684
2021-11-19 00:29:00+00:00,322.3063,9.12,12.65,47.84626,-54.09684
2021-11-19 00:39:00+00:00,318.1029,9.15,12.65,47.84626,-54.09684
2021-11-19 00:49:00+00:00,307.1764,9.12,12.65,47.84626,-54.09684
2021-11-19 00:59:00+00:00,303.3163,9.12,12.65,47.84626,-54.09684
2021-11-19 01:09:00+00:00,304.408,9.13,12.65,47.84626,-54.09684
2021-11-19 01:19:00+00:00,298.3781,9.19,12.65,47.84626,-54.09684
2021-11-19 01:29:00+00:00,289.3181,9.16,12.65,47.84626,-54.09684
2021-11-19 01:39:00+00:00,285.8914,9.17,12.65,47.84626,-54.09684
2021-11-19 01:49:00+00:00,281.0397,9.19,12.65,47.84626,-54.09684
2021-11-19 01:59:00+00:00,272.2164,9.1,12.65,47.84626,-54.09684
2021-11-19 02:09:00+00:00,264.9897,9.0,12.65,47.84626,-54.09684
2021-11-19 02:19:00+00:00,261.6381,8.9,12.65,47.84626,-54.09684
2021-11-19 02:29:00+00:00,258.2897,8.99,12.65,47.84626,-54.09684
2021-11-19 02:39:00+00:00,253.1331,9.0,12.65,47.84626,-54.09684
2021-11-19 02:49:00+00:00,246.7564,9.0,12.65,47.84626,-54.09684
2021-11-19 02:59:00+00:00,239.9597,9.04,12.65,47.84626,-54.09684
2021-11-19 03:09:00+00:00,233.5648,9.1,12.65,47.84626,-54.09684
2021-11-19 03:19:00+00:00,228.7748,9.1,12.65,47.84626,-54.09684
2021-11-19 03:29:00+00:00,222.8765,9.1,12.65,47.84626,-54.09684
2021-11-19 03:39:00+00:00,214.7164,9.1,12.65,47.84626,-54.09684
2021-11-19 03:49:00+00:00,206.5215,9.1,12.65,47.84626,-54.09684
2021-11-19 03:59:00+00:00,202.9565,8.9,12.65,47.84626,-54.09684
2021-11-19 04:09:00+00:00,198.0298,8.7,12.65,47.84626,-54.09684
2021-11-19 04:19:00+00:00,193.3232,8.23,12.57,47.84626,-54.09684
2021-11-19 04:29:00+00:00,194.8431,8.34,12.57,47.84626,-54.09684
2021-11-19 04:39:00+00:00,192.3448,8.5,12.57,47.84626,-54.09684
2021-11-19 04:49:00+00:00,186.8448,8.3,12.57,47.84626,-54.09684
2021-11-19 04:59:00+00:00,186.4381,8.55,12.57,47.84626,-54.09684
2021-11-19 05:09:00+00:00,186.1681,8.89,12.57,47.84626,-54.09684
2021-11-19 05:19:00+00:00,183.5881,9.04,12.57,47.84626,-54.09684
2021-11-19 05:29:00+00:00,183.9749,9.1,12.57,47.84626,-54.09684
2021-11-19 05:39:00+00:00,188.6798,9.1,12.57,47.84626,-54.09684
2021-11-19 05:49:00+00:00,190.1464,9.15,12.57,47.84626,-54.09684
2021-11-19 05:59:00+00:00,190.6248,9.1,12.57,47.84626,-54.09684
2021-11-19 06:09:00+00:00,196.0231,9.17,12.57,47.84626,-54.09684
2021-11-19 06:19:01+00:00,201.5164,9.2,12.57,47.84626,-54.09684
2021-11-19 06:29:01+00:00,205.1497,9.2,12.57,47.84626,-54.09684
2021-11-19 06:39:01+00:00,210.1064,9.2,12.57,47.84626,-54.09684
2021-11-19 06:49:01+00:00,217.5698,9.2,12.57,47.84626,-54.09684
2021-11-19 06:59:01+00:00,225.4698,9.2,12.57,47.84626,-54.09684
2021-11-19 07:09:01+00:00,229.5697,9.2,12.57,47.84626,-54.09684
2021-11-19 07:19:00+00:00,232.7498,9.2,12.57,47.84626,-54.09684
2021-11-19 07:29:00+00:00,238.0914,9.2,12.57,47.84626,-54.09684
2021-11-19 07:39:00+00:00,245.2981,9.2,12.57,47.84626,-54.09684
2021-11-19 07:49:00+00:00,249.0247,9.2,12.57,47.84626,-54.09684
2021-11-19 07:59:00+00:00,252.7014,9.2,12.57,47.84626,-54.09684
2021-11-19 08:09:00+00:00,256.6398,9.2,12.57,47.84626,-54.09684
2021-11-19 08:19:00+00:00,264.4947,9.2,12.57,47.84626,-54.09684
2021-11-19 08:29:00+00:00,269.4015,9.2,12.57,47.84626,-54.09684
2021-11-19 08:39:00+00:00,273.0614,9.2,12.57,47.84626,-54.09684
2021-11-19 08:49:00+00:00,275.7131,9.18,12.57,47.84626,-54.09684
2021-11-19 08:59:00+00:00,282.1748,9.2,12.57,47.84626,-54.09684
2021-11-19 09:09:00+00:00,286.3381,9.2,12.57,47.84626,-54.09684
2021-11-19 09:19:00+00:00,290.613,9.2,12.57,47.84626,-54.09684
2021-11-19 09:29:00+00:00,296.523,9.18,12.57,47.84626,-54.09684
2021-11-19 09:39:00+00:00,306.1429,9.14,12.57,47.84626,-54.09684
2021-11-19 09:49:00+00:00,313.688,9.1,12.57,47.84626,-54.09684
2021-11-19 09:59:00+00:00,320.8279,9.1,12.57,47.84626,-54.09684
2021-11-19 10:09:00+00:00,329.5464,9.1,12.57,47.84626,-54.09684
2021-11-19 10:19:00+00:00,339.3297,9.0,12.57,47.84626,-54.09684
2021-11-19 10:29:00+00:00,347.2013,8.98,12.57,47.84626,-54.09684
2021-11-19 10:39:00+00:00,350.0197,9.0,12.57,47.84626,-54.09684
2021-11-19 10:49:00+00:00,352.8264,8.96,12.57,47.84626,-54.09684
2021-11-19 10:59:00+00:00,354.2097,8.9,12.57,47.84626,-54.09684
2021-11-19 11:09:00+00:00,355.5713,8.9,12.57,47.84626,-54.09684
2021-11-19 11:19:00+00:00,357.0713,8.9,12.57,47.84626,-54.09684
2021-11-19 11:29:00+00:00,356.9213,8.9,12.57,47.84626,-54.09684
2021-11-19 11:39:00+00:00,357.7362,8.9,12.57,47.84626,-54.09684
2021-11-19 11:49:00+00:00,360.0579,8.9,12.57,47.84626,-54.09684
2021-11-19 11:59:00+00:00,361.4113,8.9,12.57,47.84626,-54.09684
2021-11-19 12:09:00+00:00,359.2863,8.9,12.57,47.84626,-54.09684
2021-11-19 12:19:00+00:00,356.1163,8.9,12.57,47.84626,-54.09684
2021-11-19 12:29:00+00:00,355.4046,8.9,12.57,47.84626,-54.09684
2021-11-19 12:39:00+00:00,352.0295,8.9,12.57,47.84626,-54.09684
2021-11-19 12:49:00+00:00,347.7747,8.9,12.57,47.84626,-54.09684
2021-11-19 12:59:00+00:00,346.6547,8.9,12.57,47.84626,-54.09684
2021-11-19 13:09:00+00:00,346.293,8.9,12.57,47.84626,-54.09684
2021-11-19 13:19:01+00:00,341.708,8.9,12.57,47.84626,-54.09684
2021-11-19 13:29:01+00:00,335.5596,8.9,12.57,47.84626,-54.09684
2021-11-19 13:39:01+00:00,329.4213,8.94,12.57,47.84626,-54.09684
2021-11-19 13:49:01+00:00,325.7396,8.99,12.57,47.84626,-54.09684
2021-11-19 13:59:01+00:00,318.0197,8.99,12.57,47.84626,-54.09684
2021-11-19 14:09:01+00:00,308.1348,8.99,12.57,47.84626,-54.09684
2021-11-19 14:19:01+00:00,299.6964,8.99,12.57,47.84626,-54.09684
2021-11-19 14:29:01+00:00,292.2097,8.97,12.57,47.84626,-54.09684
2021-11-19 14:39:01+00:00,285.603,8.98,12.57,47.84626,-54.09684
2021-11-19 14:49:01+00:00,278.5914,8.99,12.57,47.84626,-54.09684
2021-11-19 14:59:01+00:00,271.3231,8.99,12.57,47.84626,-54.09684
2021-11-19 15:09:01+00:00,263.7981,8.98,12.57,47.84626,-54.09684
2021-11-19 15:19:00+00:00,257.2264,8.98,12.65,47.84626,-54.09684
2021-11-19 15:29:00+00:00,249.9615,8.98,12.65,47.84626,-54.09684
2021-11-19 15:39:00+00:00,236.2714,8.98,12.65,47.84626,-54.09684
2021-11-19 15:49:00+00:00,225.3264,8.97,12.65,47.84626,-54.09684
2021-11-19 15:59:00+00:00,220.5364,8.98,12.65,47.84626,-54.09684
2021-11-19 16:09:00+00:00,215.0848,8.99,12.65,47.84626,-54.09684
2021-11-19 16:19:00+00:00,205.9247,8.99,12.65,47.84626,-54.09684
2021-11-19 16:29:00+00:00,197.9598,8.97,12.65,47.84626,-54.09684
2021-11-19 16:39:00+00:00,195.6314,8.96,12.65,47.84626,-54.09684
2021-11-19 16:49:00+00:00,192.6215,8.96,12.65,47.84626,-54.09684
2021-11-19 16:59:00+00:00,186.9147,8.96,12.65,47.84626,-54.09684
2021-11-19 17:09:00+00:00,182.7831,8.97,12.65,47.84626,-54.09684
2021-11-19 17:19:00+00:00,178.8932,8.98,12.65,47.84626,-54.09684
2021-11-19 17:29:00+00:00,174.9431,8.98,12.65,47.84626,-54.09684
2021-11-19 17:39:00+00:00,173.6898,8.99,12.65,47.84626,-54.09684
2021-11-19 17:49:00+00:00,174.4615,8.98,12.65,47.84626,-54.09684
2021-11-19 17:59:00+00:00,176.9715,8.99,12.65,47.84626,-54.09684
2021-11-19 18:09:00+00:00,179.1565,8.99,12.65,47.84626,-54.09684
2021-11-19 18:19:00+00:00,181.2264,8.99,12.65,47.84626,-54.09684
2021-11-19 18:29:00+00:00,181.1598,8.99,12.65,47.84626,-54.09684
2021-11-19 18:39:00+00:00,179.4431,9.0,12.65,47.84626,-54.09684
2021-11-19 18:49:00+00:00,184.3214,9.0,12.65,47.84626,-54.09684
2021-11-19 18:59:00+00:00,191.4965,9.0,12.65,47.84626,-54.09684
2021-11-19 19:09:00+00:00,192.0698,9.0,12.65,47.84626,-54.09684
2021-11-19 19:19:01+00:00,199.5831,9.0,12.65,47.84626,-54.09684
2021-11-19 19:29:01+00:00,211.6714,9.0,12.65,47.84626,-54.09684
2021-11-19 19:39:01+00:00,213.7748,8.99,12.65,47.84626,-54.09684
2021-11-19 19:49:01+00:00,212.7531,8.98,12.65,47.84626,-54.09684
2021-11-19 19:59:01+00:00,217.9831,8.98,12.65,47.84626,-54.09684
2021-11-19 20:09:01+00:00,225.0247,8.98,12.65,47.84626,-54.09684
2021-11-19 20:19:00+00:00,227.4381,8.96,12.65,47.84626,-54.09684
2021-11-19 20:29:00+00:00,231.3514,8.96,12.65,47.84626,-54.09684
2021-11-19 20:39:00+00:00,240.0231,8.96,12.65,47.84626,-54.09684
2021-11-19 20:49:00+00:00,247.8764,8.97,12.65,47.84626,-54.09684
2021-11-19 20:59:00+00:00,254.7964,8.96,12.65,47.84626,-54.09684
2021-11-19 21:09:00+00:00,260.7564,8.96,12.65,47.84626,-54.09684
2021-11-19 21:19:00+00:00,268.7997,8.95,12.65,47.84626,-54.09684
2021-11-19 21:29:00+00:00,270.6964,8.93,12.65,47.84626,-54.09684
2021-11-19 21:39:00+00:00,272.4681,8.92,12.65,47.84626,-54.09684
2021-11-19 21:49:00+00:00,278.1396,8.9,12.65,47.84626,-54.09684
2021-11-19 21:59:00+00:00,287.6647,8.9,12.65,47.84626,-54.09684
2021-11-19 22:09:00+00:00,297.428,8.9,12.65,47.84626,-54.09684
2021-11-19 22:19:01+00:00,306.1497,8.9,12.65,47.84626,-54.09684
2021-11-19 22:29:01+00:00,312.0797,8.9,12.65,47.84626,-54.09684
2021-11-19 22:39:01+00:00,319.6597,8.9,12.65,47.84626,-54.09684
2021-11-19 22:49:01+00:00,328.1146,8.9,12.65,47.84626,-54.09684
2021-11-19 22:59:01+00:00,333.163,8.9,12.65,47.84626,-54.09684
2021-11-19 23:09:01+00:00,332.4997,8.9,12.65,47.84626,-54.09684
2021-11-19 23:19:00+00:00,332.4046,8.9,12.65,47.84626,-54.09684
2021-11-19 23:29:00+00:00,331.3013,8.9,12.65,47.84626,-54.09684
2021-11-19 23:39:00+00:00,331.588,8.9,12.65,47.84626,-54.09684
2021-11-19 23:49:00+00:00,332.7480000000001,8.9,12.65,47.84626,-54.09684
2021-11-19 23:59:00+00:00,332.4863,8.9,12.65,47.84626,-54.09684
